This is the latest recevied weather packets stored in our database for station/object K1WJY. If no packets are shown the sender has not sent any weather packets the latest 10 day(s).
| Time | Temp. | Humidity | Pressure | Rain* | Wind** | Luminosity | Snow |
|---|---|---|---|---|---|---|---|
| 1787393536 | 16.67° C | 83% | 1022.6 hPa | 0 mm | - | 11 W/m² | - |
| 1787393232 | 16.67° C | 83% | 1022.4 hPa | 0 mm | - | 9 W/m² | - |
| 1787392928 | 16.67° C | 81% | 1022.6 hPa | 0 mm | - | 6 W/m² | - |
| 1787392625 | 16.67° C | 79% | 1022.5 hPa | 0 mm | - | 3 W/m² | - |
| 1787392321 | 16.67° C | 79% | 1022.7 hPa | 0 mm | - | 1 W/m² | - |
| 1787392016 | 16.67° C | 82% | 1022.5 hPa | 0 mm | - | 1 W/m² | - |
| 1787391713 | 16.11° C | 80% | 1022.6 hPa | 0 mm | - | 0 W/m² | - |
| 1787391408 | 16.11° C | 82% | 1022.3 hPa | 0 mm | - | 0 W/m² | - |
| 1787391105 | 16.11° C | 81% | 1022.3 hPa | 0 mm | - | 0 W/m² | - |
| 1787390801 | 16.11° C | 85% | 1022.3 hPa | 0 mm | - | 0 W/m² | - |
| 1787390498 | 16.11° C | 84% | 1022.4 hPa | 0 mm | - | 0 W/m² | - |
| 1787390197 | 16.11° C | 85% | 1022.2 hPa | 0 mm | - | 0 W/m² | - |
| 1787389893 | 16.11° C | 86% | 1021.9 hPa | 0 mm | - | 0 W/m² | - |
| 1787389589 | 16.11° C | 86% | 1022.3 hPa | 0 mm | - | 0 W/m² | - |
| 1787389286 | 16.11° C | 87% | 1022.3 hPa | 0 mm | - | 0 W/m² | - |
| 1787388981 | 16.67° C | 86% | 1022.4 hPa | 0 mm | - | 0 W/m² | - |
| 1787388677 | 16.67° C | 86% | 1022.3 hPa | 0 mm | - | 0 W/m² | - |
| 1787388373 | 16.67° C | 86% | 1022 hPa | 0 mm | - | 0 W/m² | - |
| 1787388069 | 16.67° C | 85% | 1022.2 hPa | 0 mm | - | 0 W/m² | - |
| 1787387765 | 16.67° C | 83% | 1022.3 hPa | 0 mm | - | 0 W/m² | - |
| 1787387461 | 17.22° C | 84% | 1022.6 hPa | 0 mm | - | 0 W/m² | - |
| 1787387159 | 17.22° C | 82% | 1022.2 hPa | 0 mm | - | 0 W/m² | - |
| 1787386855 | 17.22° C | 78% | 1022.1 hPa | 0 mm | - | 0 W/m² | - |
| 1787386550 | 16.67° C | 78% | 1022.1 hPa | 0 mm | - | 0 W/m² | - |
| 1787386246 | 16.67° C | 83% | 1021.9 hPa | 0 mm | - | 0 W/m² | - |
* Rain latest hour (hover to see other rain measurements)
** Current wind speed in m/s (hover to see current wind gust speed)